TimeMST,TemperatureF,Dew PointF,Humidity,Sea Level PressureIn,VisibilityMPH,Wind Direction,Wind SpeedMPH,Gust SpeedMPH,PrecipitationIn,Events,Conditions,WindDirDegrees,DateUTC
12:32 AM,14.0,10.4,86,29.80,1.0,West,9.2,-,0.00,Snow,Light Snow,280,2012-12-19 07:32:00
12:41 AM,14.0,10.4,86,29.81,0.8,WNW,13.8,18.4,0.00,Snow,Light Snow,290,2012-12-19 07:41:00
12:53 AM,14.0,10.0,84,29.91,0.5,WNW,11.5,-,0.00,Fog-Snow,Snow,290,2012-12-19 07:53:00
1:38 AM,14.0,10.4,86,29.83,1.0,West,6.9,-,0.01,Snow,Light Snow,260,2012-12-19 08:38:00
1:53 AM,14.0,10.9,88,29.93,1.0,West,5.8,-,0.01,Snow,Light Snow,270,2012-12-19 08:53:00
2:02 AM,14.0,10.4,86,29.83,1.2,West,5.8,-,0.00,Snow,Light Snow,260,2012-12-19 09:02:00
2:33 AM,14.0,10.4,86,29.83,2.0,West,8.1,-,0.00,Snow,Light Snow,270,2012-12-19 09:33:00
2:48 AM,15.8,10.4,79,29.84,1.5,West,6.9,-,0.00,Snow,Light Snow,260,2012-12-19 09:48:00
2:53 AM,15.1,10.9,84,29.94,1.2,West,9.2,-,0.00,Snow,Light Snow,260,2012-12-19 09:53:00
3:53 AM,15.1,10.9,84,29.95,1.8,West,9.2,-,0.00,Snow,Light Snow,270,2012-12-19 10:53:00
3:57 AM,15.8,10.4,79,29.84,2.0,West,10.4,-,0.00,Snow,Light Snow,270,2012-12-19 10:57:00
4:15 AM,15.8,10.4,79,29.85,3.0,West,9.2,-,0.00,Snow,Light Snow,260,2012-12-19 11:15:00
4:28 AM,15.8,10.4,79,29.86,2.5,WSW,8.1,-,0.00,Snow,Light Snow,250,2012-12-19 11:28:00
4:36 AM,15.8,12.2,86,29.86,3.0,WSW,6.9,-,0.00,Snow,Light Snow,250,2012-12-19 11:36:00
4:53 AM,15.1,10.9,84,29.98,9.0,WSW,8.1,-,0.00,,Overcast,250,2012-12-19 11:53:00
5:53 AM,15.1,10.0,80,30.01,10.0,WSW,5.8,-,N/A,,Overcast,250,2012-12-19 12:53:00
6:20 AM,14.0,10.4,86,29.90,10.0,West,5.8,-,N/A,,Overcast,260,2012-12-19 13:20:00
6:53 AM,15.1,10.0,80,30.04,10.0,West,9.2,-,N/A,,Overcast,260,2012-12-19 13:53:00
7:53 AM,15.1,10.0,80,30.05,8.0,West,5.8,-,N/A,,Overcast,260,2012-12-19 14:53:00
8:53 AM,10.9,6.1,81,30.09,9.0,West,10.4,-,N/A,,Scattered Clouds,280,2012-12-19 15:53:00
9:53 AM,14.0,8.1,77,30.11,5.0,West,11.5,-,0.00,Snow,Light Snow,270,2012-12-19 16:53:00
10:19 AM,15.8,8.6,73,30.00,7.0,West,6.9,-,0.00,,Overcast,270,2012-12-19 17:19:00
10:53 AM,14.0,9.0,80,30.12,9.0,WSW,9.2,-,0.00,,Overcast,250,2012-12-19 17:53:00
11:53 AM,12.0,7.0,80,30.13,9.0,West,8.1,-,N/A,,Overcast,260,2012-12-19 18:53:00
12:23 PM,10.4,6.8,85,30.01,8.0,West,11.5,-,N/A,,Scattered Clouds,260,2012-12-19 19:23:00
12:53 PM,12.0,6.1,77,30.13,9.0,West,11.5,-,N/A,,Clear,260,2012-12-19 19:53:00
1:53 PM,12.9,7.0,77,30.13,9.0,West,8.1,-,N/A,,Clear,270,2012-12-19 20:53:00
2:53 PM,12.0,6.1,77,30.15,9.0,West,4.6,-,N/A,,Clear,260,2012-12-19 21:53:00
3:53 PM,7.0,3.0,84,30.17,8.0,Calm,Calm,-,N/A,,Clear,0,2012-12-19 22:53:00
4:53 PM,1.0,-0.9,91,30.19,8.0,Calm,Calm,-,N/A,,Clear,0,2012-12-19 23:53:00
5:53 PM,-0.9,-6.0,79,30.20,8.0,NNE,3.5,-,N/A,,Clear,30,2012-12-20 00:53:00
6:53 PM,-4.0,-8.0,83,30.20,7.0,Calm,Calm,-,N/A,,Clear,0,2012-12-20 01:53:00
7:53 PM,-6.0,-9.9,83,30.20,8.0,Calm,Calm,-,N/A,,Clear,0,2012-12-20 02:53:00
8:49 PM,-7.6,-9.4,92,30.06,7.0,Calm,Calm,-,N/A,,Scattered Clouds,0,2012-12-20 03:49:00
8:53 PM,-6.0,-9.9,83,30.21,1.8,Calm,Calm,-,N/A,,Mostly Cloudy,0,2012-12-20 03:53:00
9:00 PM,-5.8,-7.6,92,30.05,0.2,Calm,Calm,-,N/A,Fog,Light Freezing Fog,0,2012-12-20 04:00:00
9:29 PM,-7.6,-13.0,77,30.05,3.0,Calm,Calm,-,N/A,,Haze,0,2012-12-20 04:29:00
9:34 PM,-7.6,-11.2,84,30.05,1.0,Calm,Calm,-,N/A,,Mist,0,2012-12-20 04:34:00
9:41 PM,-7.6,-11.2,84,30.05,0.2,Calm,Calm,-,N/A,Fog,Light Freezing Fog,0,2012-12-20 04:41:00
9:53 PM,-7.1,-11.0,83,30.20,0.2,Calm,Calm,-,N/A,Fog,Light Freezing Fog,0,2012-12-20 04:53:00
10:48 PM,-7.6,-11.2,84,30.05,1.5,Calm,Calm,-,N/A,,Mostly Cloudy,0,2012-12-20 05:48:00
10:51 PM,-7.6,-13.0,77,30.05,3.0,Calm,Calm,-,N/A,,Haze,0,2012-12-20 05:51:00
10:53 PM,-8.0,-13.0,79,30.21,2.0,Calm,Calm,-,N/A,,Haze,0,2012-12-20 05:53:00
10:55 PM,-7.6,-13.0,77,30.05,1.0,Calm,Calm,-,N/A,,Haze,0,2012-12-20 05:55:00
11:02 PM,-7.6,-11.2,84,30.05,0.2,Calm,Calm,-,N/A,Fog,Light Freezing Fog,0,2012-12-20 06:02:00
11:10 PM,-7.6,-11.2,84,30.06,0.2,Calm,Calm,-,N/A,Fog,Light Freezing Fog,0,2012-12-20 06:10:00
11:43 PM,-7.6,-11.2,84,30.05,0.2,Calm,Calm,-,N/A,Fog,Light Freezing Fog,0,2012-12-20 06:43:00
11:53 PM,-8.0,-13.0,79,30.21,0.2,Calm,Calm,-,N/A,,Haze,0,2012-12-20 06:53:00